DNO575 KJAC-KOKC

Flight info

Callsign DNO575
Flight time 1h 51m
Altitude 35000
Route ALPIN5 BPI GOULL HGO ZAROS UPIRE ROLLS SCUFF CAMET3
Aircraft A320/M-SDE3FGHIRWY/LB1

Departure

Time 2026-05-04 15:56
Airport Jackson Hole Airport (KJAC)

Arrival

Time 2026-05-04 17:47
Airport OKC Will Rogers World Airport (KOKC)
Time Latitude Longitude Altitude Speed Heading
2026-05-04 15:44 43.60225 -110.73768 6430 ft 0 kts 109°
2026-05-04 15:47 43.60232 -110.73800 6426 ft 4 kts 100°
2026-05-04 15:47 43.60234 -110.73836 6428 ft 4 kts 80°
2026-05-04 15:47 43.60224 -110.73866 6428 ft 4 kts 28°
2026-05-04 15:48 43.60220 -110.73870 6426 ft 0 kts 19°
2026-05-04 15:50 43.60229 -110.73865 6427 ft 3 kts 19°
2026-05-04 15:50 43.60272 -110.73842 6427 ft 8 kts 22°
2026-05-04 15:51 43.60331 -110.73810 6429 ft 10 kts 20°
2026-05-04 15:51 43.60405 -110.73774 6428 ft 12 kts 19°
2026-05-04 15:51 43.60486 -110.73734 6428 ft 11 kts 19°
2026-05-04 15:51 43.60552 -110.73702 6426 ft 9 kts 19°
2026-05-04 15:52 43.60603 -110.73678 6428 ft 6 kts 19°
2026-05-04 15:52 43.60640 -110.73660 6430 ft 7 kts 19°
2026-05-04 15:52 43.60702 -110.73630 6429 ft 12 kts 19°
2026-05-04 15:52 43.60800 -110.73585 6430 ft 16 kts 19°
2026-05-04 15:53 43.60905 -110.73531 6429 ft 17 kts 19°
2026-05-04 15:53 43.61031 -110.73467 6430 ft 22 kts 21°
2026-05-04 15:53 43.61177 -110.73397 6430 ft 22 kts 20°
2026-05-04 15:53 43.61323 -110.73324 6427 ft 22 kts 20°
2026-05-04 15:54 43.61462 -110.73260 6430 ft 14 kts 15°
2026-05-04 15:54 43.61521 -110.73300 6427 ft 9 kts 293°
2026-05-04 15:54 43.61531 -110.73373 6431 ft 7 kts 267°
2026-05-04 15:54 43.61490 -110.73405 6428 ft 5 kts 198°
2026-05-04 15:55 43.61489 -110.73405 6428 ft 0 kts 199°
2026-05-04 15:55 43.61372 -110.73462 6428 ft 54 kts 199°
2026-05-04 15:55 43.60770 -110.73755 6432 ft 126 kts 199°
2026-05-04 15:55 43.59775 -110.74255 6634 ft 166 kts 200°
2026-05-04 15:56 43.58703 -110.74806 7483 ft 165 kts 201°
2026-05-04 15:56 43.57633 -110.75452 8228 ft 170 kts 206°
2026-05-04 15:56 43.56555 -110.76157 8751 ft 173 kts 206°
2026-05-04 15:56 43.55467 -110.76871 9248 ft 172 kts 206°
2026-05-04 15:57 43.54400 -110.77583 9751 ft 172 kts 207°
2026-05-04 15:57 43.53247 -110.78337 9869 ft 194 kts 207°
2026-05-04 15:57 43.51960 -110.79189 10089 ft 215 kts 207°
2026-05-04 15:57 43.50565 -110.80117 10351 ft 229 kts 207°
2026-05-04 15:58 43.49118 -110.81062 10925 ft 229 kts 207°
2026-05-04 15:58 43.47663 -110.82007 11421 ft 234 kts 207°
2026-05-04 15:58 43.46185 -110.82974 11950 ft 236 kts 207°
2026-05-04 15:58 43.44705 -110.83944 12502 ft 235 kts 208°
2026-05-04 15:59 43.43233 -110.84908 13051 ft 234 kts 208°
2026-05-04 15:59 43.41771 -110.85866 13606 ft 232 kts 209°
2026-05-04 15:59 43.40297 -110.86834 13982 ft 239 kts 209°
2026-05-04 15:59 43.38769 -110.87824 14324 ft 246 kts 207°
2026-05-04 16:00 43.37215 -110.88811 14830 ft 244 kts 208°
2026-05-04 16:00 43.36184 -110.89487 15211 ft 243 kts 209°
2026-05-04 16:00 43.34620 -110.90521 15406 ft 257 kts 209°
2026-05-04 16:00 43.32961 -110.91614 15559 ft 274 kts 208°
2026-05-04 16:01 43.31166 -110.92786 15689 ft 296 kts 208°
2026-05-04 16:01 43.29235 -110.94046 15809 ft 318 kts 208°
2026-05-04 16:01 43.27145 -110.95203 15955 ft 340 kts 198°
2026-05-04 16:01 43.24743 -110.95764 16078 ft 361 kts 185°
2026-05-04 16:02 43.22166 -110.95527 16207 ft 382 kts 170°
2026-05-04 16:02 43.19596 -110.94354 16432 ft 397 kts 155°
2026-05-04 16:02 43.15254 -110.89564 17423 ft 409 kts 135°
2026-05-04 16:03 43.13254 -110.86786 17961 ft 412 kts 135°
2026-05-04 16:03 43.11235 -110.83980 18455 ft 415 kts 135°
2026-05-04 16:03 43.09202 -110.81155 18940 ft 418 kts 135°
2026-05-04 16:03 43.07157 -110.78316 19423 ft 420 kts 135°
2026-05-04 16:04 43.05097 -110.75459 19873 ft 423 kts 135°
2026-05-04 16:04 43.00936 -110.69714 20797 ft 427 kts 135°
2026-05-04 16:04 42.98836 -110.66817 21230 ft 430 kts 134°
2026-05-04 16:05 42.96727 -110.63902 21645 ft 433 kts 134°
2026-05-04 16:05 42.94606 -110.60970 22067 ft 436 kts 134°
2026-05-04 16:05 42.90316 -110.55062 22933 ft 440 kts 134°
2026-05-04 16:06 42.88149 -110.52094 23334 ft 443 kts 134°
2026-05-04 16:06 42.82327 -110.44114 24231 ft 449 kts 134°
2026-05-04 16:07 42.79371 -110.40070 24708 ft 451 kts 134°
2026-05-04 16:07 42.72709 -110.30981 25751 ft 457 kts 134°
2026-05-04 16:08 42.70459 -110.27912 26078 ft 459 kts 134°
2026-05-04 16:08 42.63657 -110.18655 27013 ft 464 kts 134°
2026-05-04 16:09 42.59069 -110.12427 27560 ft 468 kts 134°
2026-05-04 16:09 42.54979 -110.05516 28074 ft 472 kts 126°
2026-05-04 16:10 42.51054 -109.98345 28642 ft 474 kts 126°
2026-05-04 16:11 42.45165 -109.87627 29713 ft 472 kts 127°
2026-05-04 16:11 42.43196 -109.84054 30007 ft 473 kts 127°
2026-05-04 16:12 42.37299 -109.73384 30868 ft 471 kts 127°
2026-05-04 16:12 42.31419 -109.62784 31809 ft 468 kts 127°
2026-05-04 16:13 42.27504 -109.55744 32377 ft 469 kts 128°
2026-05-04 16:13 42.23615 -109.48767 32993 ft 467 kts 128°
2026-05-04 16:14 42.19702 -109.41768 33626 ft 466 kts 128°
2026-05-04 16:14 42.15798 -109.34793 34142 ft 466 kts 128°
2026-05-04 16:15 42.09900 -109.24308 34715 ft 470 kts 128°
2026-05-04 16:16 42.05934 -109.17257 34817 ft 474 kts 128°
2026-05-04 16:17 41.95940 -108.99575 34810 ft 476 kts 129°
2026-05-04 16:18 41.87926 -108.85471 34829 ft 476 kts 129°
2026-05-04 16:19 41.77841 -108.67836 34792 ft 477 kts 129°
2026-05-04 16:20 41.67731 -108.50234 34776 ft 477 kts 130°
2026-05-04 16:22 41.57579 -108.32688 34811 ft 477 kts 130°
2026-05-04 16:23 41.45363 -108.11683 34809 ft 477 kts 130°
2026-05-04 16:25 41.33128 -107.90804 34832 ft 478 kts 130°
2026-05-04 16:26 41.18747 -107.66451 34944 ft 480 kts 131°
2026-05-04 16:28 41.08426 -107.49070 35015 ft 481 kts 131°
2026-05-04 16:29 40.93701 -107.24466 34969 ft 488 kts 132°
2026-05-04 16:31 40.83001 -107.06717 34900 ft 503 kts 133°
2026-05-04 16:32 40.69956 -106.85217 34981 ft 506 kts 134°
2026-05-04 16:33 40.61124 -106.70702 34986 ft 509 kts 134°
2026-05-04 16:34 40.54462 -106.59837 34956 ft 508 kts 134°
2026-05-04 16:35 40.41658 -106.37192 34858 ft 518 kts 130°
2026-05-04 16:36 40.35324 -106.25727 34850 ft 518 kts 131°
2026-05-04 16:37 40.28898 -106.14315 34867 ft 520 kts 131°
2026-05-04 16:38 40.20347 -105.99090 34897 ft 523 kts 131°
2026-05-04 16:39 40.13851 -105.87570 35108 ft 525 kts 131°
2026-05-04 16:39 40.09508 -105.79894 35121 ft 525 kts 132°
2026-05-04 16:40 40.05156 -105.72227 34844 ft 525 kts 132°
2026-05-04 16:40 40.00794 -105.64568 34858 ft 526 kts 132°
2026-05-04 16:41 39.89837 -105.45386 34852 ft 529 kts 132°
2026-05-04 16:43 39.78792 -105.26184 34906 ft 530 kts 133°
2026-05-04 16:43 39.72185 -105.14737 34880 ft 530 kts 133°
2026-05-04 16:45 39.58892 -104.91828 34962 ft 529 kts 133°
2026-05-04 16:46 39.47767 -104.72809 34901 ft 530 kts 133°
2026-05-04 16:47 39.38842 -104.57632 34821 ft 530 kts 133°
2026-05-04 16:48 39.29940 -104.42538 34727 ft 529 kts 133°
2026-05-04 16:49 39.21719 -104.28676 34727 ft 529 kts 133°
2026-05-04 16:50 39.12757 -104.13644 34688 ft 529 kts 134°
2026-05-04 16:51 39.06012 -104.02383 34712 ft 530 kts 134°
2026-05-04 16:52 38.96987 -103.87354 34684 ft 531 kts 134°
2026-05-04 16:53 38.90220 -103.76123 34677 ft 534 kts 134°
2026-05-04 16:54 38.81083 -103.61063 34696 ft 535 kts 134°
2026-05-04 16:55 38.66943 -103.38865 34691 ft 538 kts 136°
2026-05-04 16:56 38.55087 -103.20305 34687 ft 541 kts 136°
2026-05-04 16:57 38.47942 -103.09201 34714 ft 543 kts 136°
2026-05-04 16:58 38.38349 -102.94309 34705 ft 545 kts 137°
2026-05-04 17:00 38.23764 -102.71854 34811 ft 550 kts 136°
2026-05-04 17:01 38.11552 -102.53144 34804 ft 550 kts 137°
2026-05-04 17:02 38.01768 -102.38247 34778 ft 551 kts 137°
2026-05-04 17:03 37.94327 -102.27115 34682 ft 551 kts 139°
2026-05-04 17:03 37.86704 -102.16186 34687 ft 552 kts 139°
2026-05-04 17:04 37.76563 -102.01556 34740 ft 553 kts 139°
2026-05-04 17:05 37.66404 -101.86936 34785 ft 554 kts 139°
2026-05-04 17:06 37.58761 -101.76010 34768 ft 554 kts 139°
2026-05-04 17:07 37.51970 -101.66324 34807 ft 554 kts 139°
2026-05-04 17:07 37.45989 -101.57814 34765 ft 556 kts 139°
2026-05-04 17:08 37.38108 -101.47176 34712 ft 551 kts 144°
2026-05-04 17:09 37.32633 -101.40541 34717 ft 550 kts 145°
2026-05-04 17:09 37.27107 -101.33894 34719 ft 551 kts 144°
2026-05-04 17:10 37.13490 -101.16946 34765 ft 551 kts 143°
2026-05-04 17:11 37.08039 -101.10203 34800 ft 550 kts 144°
2026-05-04 17:12 36.99840 -101.00144 34818 ft 550 kts 144°
2026-05-04 17:13 36.86168 -100.83375 34776 ft 551 kts 144°
2026-05-04 17:14 36.75221 -100.70011 34714 ft 550 kts 144°
2026-05-04 17:15 36.67029 -100.60058 34698 ft 550 kts 144°
2026-05-04 17:16 36.56013 -100.46720 34731 ft 551 kts 144°
2026-05-04 17:17 36.45037 -100.33479 34689 ft 552 kts 144°
2026-05-04 17:18 36.34003 -100.20199 34718 ft 552 kts 144°
2026-05-04 17:19 36.22930 -100.06980 34703 ft 554 kts 144°
2026-05-04 17:20 36.11824 -99.93742 34717 ft 554 kts 144°
2026-05-04 17:20 36.03479 -99.83830 34689 ft 555 kts 144°
2026-05-04 17:21 35.92326 -99.70662 34682 ft 557 kts 144°
2026-05-04 17:22 35.86711 -99.64037 34689 ft 558 kts 144°
2026-05-04 17:23 35.78256 -99.54088 34016 ft 561 kts 144°
2026-05-04 17:23 35.75573 -99.50575 33679 ft 568 kts 133°
2026-05-04 17:23 35.72180 -99.41770 32305 ft 573 kts 100°
2026-05-04 17:24 35.71691 -99.36948 31619 ft 566 kts 91°
2026-05-04 17:24 35.70868 -99.22551 29577 ft 557 kts 91°
2026-05-04 17:25 35.70582 -99.17818 28768 ft 553 kts 92°
2026-05-04 17:25 35.70008 -99.08418 27056 ft 549 kts 92°
2026-05-04 17:26 35.69461 -98.99223 25908 ft 530 kts 93°
2026-05-04 17:26 35.68650 -98.85925 24090 ft 509 kts 93°
2026-05-04 17:27 35.68108 -98.77355 22980 ft 496 kts 94°
2026-05-04 17:27 35.67583 -98.69051 21784 ft 484 kts 94°
2026-05-04 17:28 35.67072 -98.60913 20656 ft 471 kts 94°
2026-05-04 17:29 35.66304 -98.49083 19043 ft 454 kts 94°
2026-05-04 17:29 35.65466 -98.38072 18583 ft 411 kts 102°
2026-05-04 17:30 35.63503 -98.28015 17471 ft 396 kts 104°
2026-05-04 17:31 35.62233 -98.21625 17212 ft 373 kts 104°
2026-05-04 17:31 35.60497 -98.12637 16538 ft 353 kts 103°
2026-05-04 17:32 35.59434 -98.06792 15902 ft 348 kts 103°
2026-05-04 17:33 35.57750 -97.98166 14923 ft 343 kts 111°
2026-05-04 17:33 35.56907 -97.95438 14624 ft 341 kts 112°
2026-05-04 17:34 35.54400 -97.87354 13722 ft 335 kts 112°
2026-05-04 17:34 35.53577 -97.84710 13320 ft 337 kts 112°
2026-05-04 17:35 35.51105 -97.76731 12409 ft 328 kts 112°
2026-05-04 17:35 35.48921 -97.72108 12010 ft 307 kts 146°
2026-05-04 17:35 35.47053 -97.70976 11676 ft 295 kts 172°
2026-05-04 17:36 35.45045 -97.70772 11329 ft 289 kts 184°
2026-05-04 17:36 35.43038 -97.70728 11018 ft 287 kts 185°
2026-05-04 17:36 35.41046 -97.70692 10721 ft 286 kts 185°
2026-05-04 17:36 35.39069 -97.70680 10426 ft 283 kts 186°
2026-05-04 17:37 35.37106 -97.70693 10127 ft 281 kts 186°
2026-05-04 17:37 35.35155 -97.70702 9989 ft 280 kts 185°
2026-05-04 17:37 35.33205 -97.70699 9992 ft 280 kts 185°
2026-05-04 17:37 35.31264 -97.70680 9753 ft 278 kts 185°
2026-05-04 17:38 35.29328 -97.70647 9403 ft 277 kts 185°
2026-05-04 17:38 35.27410 -97.70606 9068 ft 275 kts 184°
2026-05-04 17:38 35.25529 -97.70566 8748 ft 272 kts 185°
2026-05-04 17:38 35.23650 -97.70525 8467 ft 268 kts 185°
2026-05-04 17:39 35.19954 -97.70451 7827 ft 263 kts 184°
2026-05-04 17:39 35.18135 -97.70414 7501 ft 260 kts 185°
2026-05-04 17:39 35.16338 -97.70377 7163 ft 258 kts 184°
2026-05-04 17:40 35.14549 -97.70341 6798 ft 257 kts 184°
2026-05-04 17:40 35.13369 -97.70316 6587 ft 255 kts 184°
2026-05-04 17:40 35.11606 -97.70276 6285 ft 252 kts 184°
2026-05-04 17:40 35.09867 -97.70238 6032 ft 246 kts 184°
2026-05-04 17:41 35.08211 -97.69907 5904 ft 243 kts 161°
2026-05-04 17:41 35.06888 -97.68622 5699 ft 251 kts 131°
2026-05-04 17:41 35.06237 -97.66614 5374 ft 262 kts 99°
2026-05-04 17:41 35.06477 -97.64413 5086 ft 266 kts 66°
2026-05-04 17:42 35.07572 -97.62625 4964 ft 265 kts 35°
2026-05-04 17:42 35.09185 -97.61588 4978 ft 261 kts 12°
2026-05-04 17:42 35.10929 -97.60951 4972 ft 263 kts 11°
2026-05-04 17:42 35.12683 -97.60311 4970 ft 263 kts 12°
2026-05-04 17:43 35.14436 -97.59668 4968 ft 263 kts 12°
2026-05-04 17:43 35.16177 -97.59060 4988 ft 253 kts
2026-05-04 17:43 35.17860 -97.58903 4990 ft 235 kts 353°
2026-05-04 17:43 35.19448 -97.58904 4973 ft 222 kts 354°
2026-05-04 17:44 35.20988 -97.58895 4650 ft 221 kts 354°
2026-05-04 17:44 35.22520 -97.58889 4278 ft 220 kts 354°
2026-05-04 17:44 35.24069 -97.58887 3858 ft 224 kts 355°
2026-05-04 17:44 35.25641 -97.58885 3577 ft 229 kts 356°
2026-05-04 17:45 35.27227 -97.58886 3307 ft 231 kts 357°
2026-05-04 17:45 35.28819 -97.58886 3027 ft 227 kts 358°
2026-05-04 17:45 35.30375 -97.58886 2747 ft 219 kts 357°
2026-05-04 17:45 35.31855 -97.58886 2483 ft 207 kts 358°
2026-05-04 17:46 35.33252 -97.58887 2227 ft 194 kts 356°
2026-05-04 17:46 35.34563 -97.58888 1979 ft 183 kts 357°
2026-05-04 17:46 35.35800 -97.58889 1730 ft 173 kts 358°
2026-05-04 17:46 35.37007 -97.58892 1500 ft 175 kts 355°
2026-05-04 17:47 35.38220 -97.58894 1322 ft 173 kts 358°
2026-05-04 17:47 35.39335 -97.58898 1295 ft 141 kts 360°
2026-05-04 17:47 35.40141 -97.58895 1299 ft 84 kts
2026-05-04 17:47 35.40377 -97.58916 1300 ft 15 kts 329°
2026-05-04 17:48 35.40392 -97.59018 1297 ft 14 kts 259°
2026-05-04 17:48 35.40320 -97.59066 1296 ft 13 kts 177°
2026-05-04 17:48 35.40235 -97.59061 1298 ft 12 kts 179°
2026-05-04 17:48 35.40154 -97.59061 1299 ft 12 kts 180°
2026-05-04 17:49 35.40067 -97.59062 1297 ft 13 kts 180°
2026-05-04 17:49 35.39971 -97.59063 1296 ft 14 kts 180°
2026-05-04 17:49 35.39871 -97.59064 1298 ft 14 kts 180°
2026-05-04 17:49 35.39779 -97.59065 1300 ft 13 kts 180°
2026-05-04 17:50 35.39682 -97.59066 1298 ft 15 kts 180°
2026-05-04 17:50 35.39573 -97.59063 1296 ft 16 kts 178°
2026-05-04 17:50 35.39490 -97.59084 1297 ft 9 kts 229°
2026-05-04 17:50 35.39476 -97.59160 1298 ft 11 kts 265°
2026-05-04 17:51 35.39429 -97.59226 1298 ft 10 kts 198°
2026-05-04 17:51 35.39385 -97.59291 1297 ft 12 kts 266°
2026-05-04 17:51 35.39394 -97.59380 1299 ft 9 kts 305°
2026-05-04 17:51 35.39421 -97.59431 1301 ft 7 kts 281°
2026-05-04 17:52 35.39419 -97.59489 1301 ft 9 kts 266°
2026-05-04 17:52 35.39430 -97.59553 1301 ft 6 kts 320°
2026-05-04 17:52 35.39458 -97.59560 1301 ft 0 kts 353°
2026-05-04 17:52 35.39459 -97.59560 1301 ft 0 kts 354°